Carroll
Saturday 10:35 PM
Temperature30° (46°/19°)
Dew Point28°
Relative Humidity93
%
Visibility10
mi
Pressure1020.0
mb
Wind Direction
Wind SpeedCalm
Precipitation Today0.00"

Last 30 Observations

Time PresWx Temp DP Feels RH% Vsby Pressure Ceiling Direction Speed 1h Precip
10:15 PM 32° 30° 93
%
10
mi
1020.0
mb
Calm 0.00"
9:55 PM 32° 30° 93
%
10
mi
1020.3
mb
Calm 0.00"
9:35 PM 34° 28° 80
%
10
mi
1020.3
mb
Calm 0.00"
9:15 PM 34° 30° 86
%
10
mi
1020.0
mb
Calm 0.00"
8:55 PM 37° 30° 75
%
10
mi
1020.0
mb
Calm 0.00"
8:35 PM 37° 30° 75
%
10
mi
1020.0
mb
Calm 0.00"
8:15 PM 37° 32° 81
%
10
mi
1020.0
mb
Calm 0.00"
7:55 PM 39° 28° 36°65
%
10
mi
1020.0
mb
SE
130°
5
mph
0.00"
7:35 PM 43° 28° 39°57
%
10
mi
1020.0
mb
ESE
120°
6
mph
0.00"
7:15 PM 45° 27° 40°49
%
10
mi
1020.0
mb
ESE
120°
8
mph
0.00"
6:55 PM 45° 27° 39°49
%
10
mi
1020.0
mb
ESE
120°
10
mph
0.00"
6:35 PM 46° 27° 42°46
%
10
mi
1020.0
mb
SE
130°
9
mph
0.00"
6:15 PM 46° 25° 42°42
%
10
mi
1020.0
mb
ESE
110°
9
mph
0.00"
5:55 PM 46° 27° 42°46
%
10
mi
1020.0
mb
ESE
110°
8
mph
0.00"
5:35 PM 46° 27° 42°46
%
10
mi
1020.0
mb
SE
130°
8
mph
0.00"
5:15 PM 46° 27° 42°46
%
10
mi
1020.0
mb
SE
130°
8
mph
0.00"
4:55 PM 46° 25° 42°42
%
10
mi
1020.3
mb
ESE
120°
9
mph
0.00"
4:35 PM 46° 25° 41°42
%
10
mi
1020.3
mb
SE
130°
10
mph
0.00"
4:15 PM 46° 27° 41°46
%
10
mi
1020.3
mb
SE
130°
10
mph
0.00"
3:55 PM 45° 28° 39°53
%
10
mi
1020.7
mb
ESE
120°
10
mph
0.00"
3:35 PM 45° 28° 40°53
%
10
mi
1021.0
mb
ESE
110°
8
mph
0.00"
3:15 PM 43° 27° 37°52
%
0
mi
1021.3
mb
SE
130°
9
mph
0.00"
2:55 PM 43° 27° 39°52
%
10
mi
1021.7
mb
E
90°
7
mph
0.00"
2:35 PM 43° 27° 37°52
%
10
mi
1022.4
mb
E
90°
10
mph
0.00"
2:15 PM 41° 25° 36°52
%
10
mi
1022.4
mb
12,000
ft
E
90°
8
mph
0.00"
1:55 PM 41° 27° 35°56
%
10
mi
1022.7
mb
12,000
ft
ENE
70°
9
mph
0.00"
1:35 PM 39° 25° 33°56
%
10
mi
1023.0
mb
12,000
ft
E
90°
9
mph
0.00"
1:15 PM 37° 25° 32°60
%
10
mi
1023.4
mb
12,000
ft
Variable 7
mph
0.00"
12:55 PM 37° 25° 32°60
%
10
mi
1023.7
mb
12,000
ft
Variable 7
mph
0.00"
12:35 PM 36° 25° 31°64
%
10
mi
1024.1
mb
12,000
ft
ENE
60°
6
mph
0.00"